Location: Unspecified
(0.0000°N, 0.0000°E)
Time: 14:39:48
(UTC+00:00)

A-11 Canister half - Pass Details

Date: 23 November 2019
Orbit: 1513 x 1686 km, 47.2° (Epoch: 08 July)

Event Time Altitude Azimuth Distance (km) Brightness Sun altitude
Rises 14:11:10 0° 231° (SW) 4,727 12.2 49.2°
Reaches altitude 10° 14:14:17 10° 235° (SW) 3,763 12.0 48.5°
Maximum altitude 14:23:33 55° 310° (NW) 1,885 10.4 46.5°
Drops below altitude 10° 14:33:10 10° 25° (NNE) 3,887 10.9 44.4°
Sets 14:36:28 0° 30° (NNE) 4,892 11.3 43.7°
